Temperature
21 19 19 20 21 22 23 23 22 22 24 23 22 22 21 21 21 21 21 21 21 21 21 20 20 20 20 19 19 19 18 18 18 18 18 18 17 17 17 17 17 17 17 17
20 20 21 21 22 22 22 22 22 22 23 23 22 22 21 21 21 21 21 21 21 21 21 20 20 20 19 19 19 19 18 18 18 18 18 18 18 17 17 17 17 17 17 17
20 21 22 22 22 22 22 22 22 23 23 22 23 22 21 21 21 21 21 21 21 21 21 20 20 20 20 19 19 19 18 18 18 18 18 17 17 17 17 17 17 17 17 17
21 21 23 23 22 22 21 22 23 23 22 20 22 21 22 20 20 20 21 21 21 21 21 21 20 20 20 19 19 19 18 18 18 18 17 17 17 17 17 17 17 17 17 17
21 22 22 22 23 23 22 23 23 22 21 20 20 21 20 20 20 20 20 21 21 21 21 21 21 20 20 19 19 19 18 18 18 18 17 17 17 17 17 17 17 17 17 17
21 23 23 23 24 24 23 22 20 18 18 20 21 20 20 19 20 20 20 20 21 21 21 21 21 20 20 19 19 18 18 18 17 17 17 17 17 17 17 17 17 17 17 17
22 23 23 24 24 24 23 20 19 20 19 19 19 19 19 20 20 20 20 20 20 20 20 21 20 20 20 19 19 18 18 18 17 17 17 17 17 17 17 17 17 17 17 17
21 21 22 23 23 22 21 20 19 20 20 19 19 19 19 20 20 20 20 20 20 20 20 20 20 20 20 19 19 18 18 18 17 17 17 17 17 17 17 17 17 17 17 17
19 21 23 23 23 22 21 20 19 18 19 19 19 19 20 20 19 19 19 19 19 20 20 20 20 20 19 19 19 18 18 18 17 17 17 17 17 17 17 17 17 17 17 17
20 22 23 23 23 22 21 18 17 17 18 20 20 20 19 20 19 19 18 18 18 19 20 20 20 20 19 19 18 18 18 17 17 17 17 17 17 17 17 17 17 17 17 17
20 21 22 22 22 22 20 19 17 16 17 18 20 20 20 19 19 18 18 18 18 19 19 19 19 19 19 19 18 18 18 17 17 17 16 16 16 16 16 17 16 16 17 17
19 18 19 21 22 22 21 19 17 19 18 17 18 19 20 18 18 18 18 18 19 19 19 19 19 19 18 18 18 18 17 17 17 17 17 16 16 16 16 16 16 16 16 16
19 18 19 20 21 21 21 19 17 16 15 16 18 20 19 17 18 18 18 18 18 18 19 19 19 19 18 18 18 18 17 17 17 17 17 17 16 16 16 16 16 16 16 16
18 17 18 19 19 20 21 20 18 18 17 17 18 20 19 18 17 17 18 18 18 18 19 19 19 19 18 18 17 17 17 17 17 17 17 17 16 16 16 16 16 16 16 16
18 18 19 19 20 20 21 20 20 20 18 18 19 19 19 17 17 17 17 18 18 18 18 18 18 18 18 18 17 17 17 17 17 17 16 16 16 16 16 16 16 16 16 16
16 17 19 19 20 20 20 20 20 19 19 19 19 18 17 16 17 17 17 17 17 17 18 18 18 18 18 18 17 17 17 17 17 16 16 16 16 16 16 16 16 16 16 16
15 17 17 18 19 20 19 18 18 18 18 18 18 18 16 16 16 16 16 17 17 17 17 17 18 18 18 17 17 17 17 17 17 16 16 16 16 16 16 16 16 16 16 15
15 14 14 16 19 19 18 17 18 17 16 16 16 16 16 15 15 16 16 17 17 17 17 17 17 17 17 17 17 17 17 16 16 16 16 16 16 15 15 15 15 15 15 15
14 14 14 15 17 17 18 17 17 17 16 16 15 15 15 15 15 15 16 16 16 16 16 17 17 16 16 16 16 16 16 16 16 16 15 15 15 15 15 15 15 15 15 14
13 13 14 14 17 17 17 17 17 16 16 15 15 14 14 15 15 14 15 16 16 16 16 16 16 16 16 16 16 16 16 15 15 15 15 15 15 15 15 15 14 14 14 14
15 14 14 14 16 16 15 15 16 16 16 14 14 14 14 14 14 14 15 15 15 15 16 16 16 16 16 15 15 15 15 15 15 15 15 15 15 15 14 14 14 14 14 14
14 14 13 13 15 15 14 14 15 14 14 14 14 14 14 14 14 14 14 14 15 15 15 15 15 15 15 15 15 15 15 15 14 15 15 14 14 14 14 14 14 14 13 13
12 12 12 12 13 12 12 12 13 13 13 13 14 14 14 14 13 13 13 14 14 14 14 14 14 14 14 14 14 14 14 14 14 14 14 14 14 14 13 13 13 13 13 13
12 11 11 11 12 11 12 12 13 13 13 14 14 14 14 13 13 13 13 13 13 13 13 13 14 14 13 13 14 14 13 13 14 14 14 13 13 13 13 12 12 12 12 12
12 11 11 11 11 11 12 12 12 13 13 13 13 13 13 13 12 12 12 12 12 12 13 13 13 13 13 13 13 13 13 13 13 13 13 13 13 12 12 12 11 11 11 11
10 11 11 11 11 11 11 11 12 12 12 12 12 12 12 12 12 12 12 12 12 12 12 12 12 12 12 12 12 12 12 12 12 12 12 12 12 12 11 11 11 10 10 10
Wind_Speed
5 5 5 8 8 6 3 3 6 7 5 1 2 3 3 3 5 6 6 7 7 7 6 7 9 10 11 11 11 12 11 10 10 8 8 7 7 6 6 6 10 12 12 12
4 4 9 7 5 4 4 4 6 7 3 0 1 3 2 3 6 6 7 8 7 5 4 7 9 10 11 12 11 11 12 12 12 10 8 6 6 5 5 5 7 11 12 12
8 6 5 6 5 5 5 6 6 5 5 4 2 4 3 3 2 3 4 4 4 7 7 7 9 10 10 11 12 12 13 12 12 11 7 6 4 3 3 4 5 7 11 12
6 6 4 5 6 7 6 7 7 4 0 3 1 2 5 3 5 5 4 3 4 5 6 7 8 9 10 10 10 10 10 10 11 12 11 11 8 7 6 5 5 6 9 10
7 6 7 7 8 9 8 2 3 2 4 0 2 2 7 4 5 7 5 4 3 4 7 7 8 8 7 7 8 8 9 9 10 10 12 12 8 6 5 5 7 7 6 8
7 5 6 8 6 8 5 6 7 6 5 1 2 2 6 5 7 5 4 3 3 4 5 6 5 6 6 6 6 7 8 9 10 10 10 11 11 9 8 8 8 6 5 5
4 5 5 5 2 1 5 6 4 4 3 5 2 2 8 7 6 5 4 3 3 3 5 6 6 6 6 7 7 7 8 9 10 11 11 11 10 10 11 9 9 8 5 5
5 6 6 7 9 7 7 10 8 5 5 4 2 5 7 4 3 1 1 3 3 4 4 5 6 6 6 7 7 7 8 8 9 10 10 10 9 8 7 8 8 8 7 7
8 6 5 5 6 10 8 6 8 8 4 1 4 6 8 1 2 3 3 4 3 4 5 5 5 5 5 6 6 7 7 7 7 8 8 9 9 9 8 8 7 6 6 6
10 4 4 3 5 4 7 10 7 7 7 2 4 5 5 5 2 1 3 3 2 3 4 5 5 5 4 4 4 5 6 6 6 6 7 8 8 8 8 7 8 7 7 6
8 5 3 4 2 4 5 6 6 6 6 7 3 7 5 6 4 4 4 4 3 4 4 4 3 3 4 4 4 4 5 5 5 6 6 7 8 8 8 8 8 8 7 7
7 6 2 4 3 2 5 7 8 7 4 5 5 7 4 4 3 5 4 3 3 4 4 4 3 3 3 3 3 3 4 5 5 5 6 7 7 8 8 8 8 8 7 7
8 7 3 4 4 3 4 4 5 7 6 6 5 6 2 2 2 2 3 4 5 5 5 4 4 3 3 3 3 4 4 4 4 4 5 5 6 7 7 7 7 7 7 7
7 6 7 10 8 5 4 4 5 6 5 6 7 5 3 1 1 1 2 3 4 4 4 4 3 3 3 3 3 4 3 4 4 4 5 5 5 5 6 6 6 6 7 7
6 5 4 2 3 5 4 4 5 5 7 8 7 6 4 2 3 2 2 2 3 3 3 3 3 3 3 3 3 3 4 4 5 5 5 5 5 5 5 5 5 5 5 6
5 6 4 3 3 5 4 2 4 3 4 4 4 3 2 0 2 2 3 4 3 2 2 2 2 3 3 3 3 4 4 4 5 6 5 5 6 6 6 5 5 5 4 4
3 6 5 2 0 5 2 1 2 3 2 4 5 4 2 2 3 2 2 2 2 2 2 2 2 2 2 2 3 3 3 4 5 5 5 5 6 6 5 5 5 5 5 5
6 5 5 4 4 3 3 2 3 5 3 2 2 2 3 3 2 2 2 3 2 2 2 2 2 2 1 2 3 3 4 4 5 5 5 5 6 6 5 6 5 5 6 5
4 7 5 4 4 1 2 0 2 3 1 2 3 4 3 4 4 4 4 3 2 2 2 2 2 2 2 3 4 5 5 5 5 5 5 5 6 6 7 7 6 6 6 6
7 6 6 5 5 7 6 1 1 4 0 0 3 4 3 3 2 1 2 4 4 3 3 4 4 5 4 3 4 5 5 5 4 4 5 5 6 7 7 7 6 6 7 7
4 5 5 5 4 4 2 3 1 5 6 1 2 3 3 2 3 3 3 4 4 4 5 6 6 5 3 3 5 6 5 4 3 4 6 6 6 7 7 7 7 7 8 9
4 5 4 5 4 6 2 2 4 4 0 1 2 2 2 3 5 5 4 4 5 6 6 6 7 6 4 4 6 7 5 3 5 6 7 7 7 6 7 8 8 8 9 9
2 4 4 5 4 1 1 0 1 1 1 1 1 2 5 5 5 4 4 5 6 6 6 6 7 8 7 6 6 7 4 5 7 8 7 7 8 7 7 8 8 8 7 7
1 2 3 2 1 0 1 2 2 2 0 1 1 3 5 5 5 6 6 5 6 6 7 7 9 9 8 8 8 6 6 7 9 9 8 9 10 10 10 8 7 7 7 7
3 3 3 1 1 1 1 2 2 2 2 3 4 3 5 7 7 7 7 7 6 7 7 8 9 9 9 9 9 8 7 9 11 11 10 10 10 11 12 11 9 9 7 6
3 4 5 5 5 4 2 1 2 3 3 4 5 6 6 7 9 9 8 7 8 8 8 9 10 10 10 10 10 8 8 9 11 10 9 9 9 9 10 12 13 18 15 17
Wind_Direction
133 112 185 200 188 186 187 243 277 271 283 298 263 269 273 207 193 198 198 202 208 213 186 163 166 168 168 173 178 179 178 177 173 174 179 181 185 185 186 186 184 182 184 182
85 226 216 193 177 177 204 268 283 296 338 184 295 306 281 203 214 211 208 210 209 199 173 169 166 170 174 175 178 183 181 180 179 182 183 177 169 177 185 179 178 183 183 182
178 220 184 171 189 199 229 220 245 267 340 16 42 338 309 273 271 256 237 223 205 192 183 178 175 178 174 178 183 189 186 182 181 175 164 153 136 131 159 172 178 186 184 183
211 235 194 195 210 183 251 230 221 235 70 303 27 277 288 293 295 264 249 236 213 195 176 174 174 175 178 182 183 189 186 184 181 174 172 171 177 180 185 181 180 180 185 183
219 204 189 211 217 181 217 200 181 194 161 88 9 148 286 320 279 266 252 231 207 184 173 176 176 175 173 170 175 183 179 181 180 180 179 180 182 181 169 167 173 181 184 182
219 215 196 206 211 191 184 75 57 51 81 142 255 165 272 253 242 266 246 214 192 176 163 160 152 151 155 156 169 174 177 181 178 181 183 183 181 173 166 172 177 181 181 180
259 250 228 193 208 190 129 100 36 7 22 247 270 202 250 260 254 243 232 199 181 158 150 150 149 154 162 169 175 176 179 189 186 185 189 189 185 179 181 181 182 180 181 187
196 264 230 195 188 185 170 146 158 187 212 264 316 237 258 280 295 314 154 158 143 146 152 156 160 165 171 175 177 180 182 187 187 190 192 188 185 185 189 186 183 187 192 193
181 241 272 223 187 151 142 172 158 132 139 100 288 288 304 341 23 46 102 116 131 158 158 156 158 165 166 170 179 183 184 188 187 191 192 189 188 187 188 184 184 187 188 188
158 213 292 301 91 70 143 141 109 125 143 195 289 283 262 283 277 172 139 143 144 152 152 157 165 168 161 162 169 174 177 185 188 185 189 192 193 190 188 183 187 189 189 183
146 165 311 22 114 170 115 104 109 111 142 151 207 265 239 234 218 188 183 170 167 162 156 148 147 137 129 135 149 159 167 169 177 185 189 187 191 188 184 187 190 189 185 176
150 133 204 280 285 199 146 150 143 144 174 159 166 254 293 247 200 170 168 150 145 140 138 130 124 116 117 122 132 145 153 163 175 184 190 191 186 178 179 184 185 182 181 177
138 126 112 348 342 22 87 110 123 118 115 142 162 253 324 40 90 134 140 135 132 137 132 122 115 121 129 136 143 145 152 160 158 160 164 168 173 173 177 179 179 176 173 173
120 116 159 187 205 179 135 123 136 118 134 171 205 232 293 18 167 176 153 147 137 138 135 128 130 126 127 128 131 133 141 143 140 137 137 148 161 163 163 164 165 167 168 170
103 116 135 151 151 137 137 149 153 145 165 170 206 207 246 243 217 201 172 144 126 127 129 137 144 131 126 125 131 133 134 139 135 130 132 140 136 131 131 135 142 149 158 168
77 116 105 67 74 109 95 82 135 134 142 155 150 212 255 236 115 127 144 147 146 141 145 143 133 125 132 140 140 129 129 134 126 126 124 120 122 124 126 130 130 129 132 136
80 113 107 140 199 85 73 303 161 129 98 151 176 202 162 123 114 142 150 152 140 131 129 135 127 119 126 139 139 138 137 127 125 126 124 126 125 123 125 129 124 126 125 114
119 100 107 120 109 163 239 337 117 113 72 61 115 119 124 118 86 56 83 118 107 89 114 119 111 94 85 97 112 118 118 120 126 127 127 128 131 132 126 119 119 115 105 104
115 123 111 116 126 144 242 30 100 115 49 38 123 118 110 110 72 33 31 55 80 86 106 107 98 90 86 94 106 112 113 118 122 128 128 128 131 128 124 118 112 107 103 94
53 85 109 118 138 204 216 218 324 109 269 242 138 155 157 126 115 229 32 53 54 59 89 88 82 81 84 82 100 109 116 120 132 141 138 132 131 128 128 126 116 104 101 100
58 58 100 131 161 234 252 297 65 162 219 195 165 174 170 169 177 144 82 59 60 68 79 85 81 73 67 80 106 107 105 114 124 118 115 114 118 121 119 113 106 106 104 97
145 131 143 133 158 227 310 73 166 204 299 114 148 145 127 121 112 103 91 76 71 73 71 81 84 71 58 75 103 102 99 98 94 94 97 102 104 109 110 108 103 100 102 98
135 168 168 169 185 202 6 151 301 186 186 256 170 150 130 120 122 113 100 88 79 78 73 75 86 76 61 63 85 94 83 90 95 92 92 94 93 91 94 103 105 100 98 100
116 109 115 114 165 131 44 40 7 17 10 277 168 147 133 134 135 121 109 96 84 80 80 77 81 78 66 61 68 76 79 87 92 92 89 92 93 89 81 80 85 94 100 107
178 130 111 119 176 92 29 35 12 24 64 92 98 113 129 129 122 115 106 100 94 86 80 78 81 80 70 67 66 65 74 91 93 91 90 89 89 93 85 76 67 76 66 90
194 166 166 198 193 168 191 64 50 77 88 103 104 96 101 116 114 107 102 98 96 90 84 80 77 77 72 69 65 60 68 90 99 96 92 94 97 97 97 96 81 63 71 72
Height
1475 1482 1488 1486 1485 1486 1487 1490 1493 1486 1476 1477 1479 1479 1475 1473 1475 1475 1476 1477 1478 1481 1484 1486 1489 1492 1494 1496 1500 1503 1507 1510 1514 1518 1522 1525 1529 1534 1537 1541 1544 1547 1550 1553
1480 1483 1477 1477 1479 1483 1486 1490 1490 1482 1475 1477 1480 1480 1475 1473 1473 1473 1474 1475 1477 1480 1482 1484 1486 1489 1491 1493 1497 1500 1504 1507 1511 1515 1519 1523 1527 1532 1536 1539 1542 1545 1548 1551
1478 1475 1471 1475 1479 1483 1485 1488 1486 1485 1479 1477 1481 1485 1479 1474 1473 1473 1473 1474 1475 1477 1479 1482 1484 1486 1488 1491 1494 1498 1501 1504 1508 1512 1517 1521 1526 1529 1533 1536 1540 1543 1546 1549
1473 1469 1470 1474 1477 1479 1487 1477 1478 1481 1488 1495 1488 1501 1483 1478 1475 1472 1471 1472 1472 1475 1477 1480 1482 1484 1486 1489 1492 1495 1498 1502 1506 1509 1513 1517 1521 1525 1529 1533 1537 1541 1544 1547
1470 1465 1468 1472 1471 1472 1476 1471 1475 1480 1488 1496 1493 1499 1492 1480 1477 1472 1470 1470 1471 1473 1476 1478 1480 1483 1485 1488 1490 1492 1495 1499 1503 1506 1510 1514 1518 1522 1527 1531 1535 1538 1541 1544
1463 1460 1461 1462 1461 1464 1467 1474 1481 1490 1497 1507 1496 1500 1497 1484 1475 1470 1468 1469 1470 1472 1475 1477 1480 1482 1484 1486 1489 1491 1493 1496 1499 1503 1507 1511 1515 1519 1523 1527 1531 1535 1538 1541
1465 1460 1456 1456 1462 1463 1469 1487 1506 1507 1515 1511 1497 1499 1494 1473 1469 1468 1467 1468 1470 1471 1474 1476 1479 1481 1483 1485 1487 1489 1491 1494 1496 1500 1503 1507 1512 1516 1520 1524 1528 1531 1534 1537
1474 1473 1456 1453 1458 1465 1470 1480 1504 1513 1515 1510 1499 1500 1483 1469 1466 1465 1466 1467 1469 1471 1473 1476 1478 1479 1481 1484 1486 1488 1489 1491 1494 1497 1500 1504 1509 1513 1517 1521 1525 1528 1531 1535
1472 1470 1451 1448 1448 1455 1470 1477 1477 1498 1505 1510 1504 1493 1477 1467 1467 1466 1467 1468 1469 1470 1472 1475 1477 1479 1481 1483 1484 1486 1488 1490 1492 1495 1498 1501 1505 1510 1514 1518 1522 1525 1529 1533
1457 1464 1452 1447 1448 1453 1458 1469 1485 1498 1512 1514 1502 1496 1489 1473 1470 1468 1469 1469 1470 1471 1473 1474 1476 1478 1480 1482 1483 1485 1487 1489 1491 1493 1496 1499 1503 1507 1511 1515 1518 1522 1525 1529
1450 1461 1459 1453 1456 1459 1464 1471 1481 1493 1496 1510 1511 1500 1473 1469 1467 1468 1468 1468 1469 1471 1472 1474 1476 1478 1479 1480 1482 1483 1485 1487 1489 1491 1494 1496 1500 1504 1508 1511 1515 1518 1522 1525
1447 1461 1469 1460 1452 1451 1454 1463 1474 1487 1497 1499 1503 1496 1466 1465 1465 1466 1467 1468 1470 1471 1473 1474 1476 1477 1478 1479 1480 1482 1484 1486 1488 1490 1492 1494 1497 1501 1504 1508 1512 1515 1519 1522
1445 1460 1475 1472 1466 1457 1457 1462 1468 1477 1491 1501 1501 1489 1466 1465 1465 1466 1467 1468 1469 1470 1472 1473 1475 1477 1478 1479 1480 1481 1483 1485 1487 1489 1490 1492 1495 1498 1502 1506 1509 1512 1515 1518
1437 1455 1466 1474 1469 1460 1460 1462 1466 1472 1488 1493 1488 1479 1470 1468 1467 1466 1467 1468 1469 1470 1472 1474 1475 1477 1478 1479 1480 1481 1482 1484 1486 1488 1490 1492 1494 1497 1501 1504 1507 1510 1513 1516
1437 1453 1454 1455 1452 1453 1457 1460 1462 1466 1472 1479 1476 1474 1469 1467 1467 1466 1467 1468 1469 1471 1472 1474 1476 1477 1478 1480 1481 1482 1483 1484 1486 1488 1489 1492 1494 1497 1500 1502 1505 1508 1511 1514
1440 1452 1454 1457 1454 1454 1460 1460 1461 1463 1466 1468 1470 1472 1466 1466 1466 1467 1467 1468 1469 1471 1473 1475 1476 1477 1479 1480 1482 1483 1484 1485 1486 1488 1490 1492 1494 1497 1499 1502 1504 1507 1509 1511
1446 1451 1461 1467 1459 1458 1470 1465 1464 1465 1465 1466 1470 1469 1466 1467 1467 1467 1468 1469 1471 1472 1474 1475 1476 1478 1479 1481 1482 1483 1485 1486 1487 1489 1490 1492 1495 1497 1499 1501 1503 1506 1508 1510
1446 1455 1465 1469 1465 1477 1472 1461 1461 1464 1466 1465 1465 1466 1467 1468 1468 1469 1469 1470 1471 1473 1474 1475 1476 1478 1479 1480 1482 1483 1485 1486 1488 1490 1491 1493 1495 1497 1500 1502 1503 1505 1507 1510
1441 1451 1465 1474 1476 1475 1467 1462 1463 1465 1469 1466 1466 1467 1468 1468 1469 1471 1471 1471 1472 1473 1474 1475 1476 1478 1479 1480 1481 1482 1484 1486 1488 1490 1491 1493 1495 1497 1499 1501 1503 1505 1508 1510
1445 1449 1462 1471 1476 1480 1468 1462 1461 1465 1471 1466 1466 1467 1468 1469 1473 1474 1472 1472 1472 1473 1474 1475 1476 1477 1479 1480 1481 1482 1484 1485 1487 1489 1492 1494 1496 1498 1499 1502 1504 1506 1508 1511
1455 1459 1465 1470 1472 1470 1463 1461 1462 1473 1470 1465 1465 1466 1467 1468 1470 1472 1472 1472 1473 1473 1474 1475 1477 1478 1478 1480 1481 1482 1484 1485 1488 1490 1492 1494 1496 1498 1500 1502 1504 1507 1509 1511
1458 1462 1467 1471 1473 1473 1462 1460 1464 1465 1462 1462 1463 1465 1466 1467 1469 1470 1471 1472 1473 1474 1475 1476 1476 1478 1479 1480 1481 1482 1484 1486 1489 1490 1492 1494 1496 1498 1501 1503 1505 1507 1509 1511
1458 1459 1461 1464 1467 1463 1461 1461 1462 1461 1461 1462 1462 1464 1465 1466 1468 1470 1472 1473 1473 1475 1476 1476 1477 1478 1480 1481 1482 1483 1486 1488 1489 1491 1493 1495 1497 1499 1502 1504 1506 1508 1510 1512
1456 1456 1459 1462 1461 1461 1461 1461 1461 1461 1461 1461 1462 1463 1465 1466 1468 1470 1471 1473 1474 1476 1477 1478 1479 1480 1481 1483 1484 1485 1487 1489 1491 1492 1494 1496 1498 1500 1502 1505 1507 1509 1511 1512
1455 1456 1459 1461 1461 1460 1461 1461 1461 1461 1461 1461 1462 1463 1465 1466 1468 1470 1472 1474 1476 1478 1479 1480 1481 1482 1483 1485 1486 1488 1489 1491 1492 1494 1496 1497 1499 1501 1503 1506 1509 1511 1513 1514
1453 1455 1457 1458 1457 1459 1461 1461 1461 1461 1461 1462 1462 1464 1466 1468 1469 1471 1474 1477 1478 1480 1481 1483 1484 1485 1486 1488 1489 1490 1492 1493 1494 1496 1498 1500 1501 1503 1505 1508 1510 1513 1514 1516